STARLINK-35270, 65882

Orbit data source: Space-Track

STARLINK-35270, 65882 is a payload satellite owned by SpaceX/Seattle (US) in LEO that was launched on Tue, 07 Oct 2025 UTC via an FALCON 9 launch vehicle from the Air Force Eastern Test Range (AFETR). Payload-class satellites include a variety of spacecraft equipped with specific instruments for various scientific and technological missions. These include communications satellites like Starlink; space stations such as the ISS; scientific satellites like the Hubble; Earth observation satellites from companies like Planet Labs, Umbra, and HawkEye 360; GPS; miniature CubeSats for education and research; and military/defense satellites.

Loading next visibility...
Identifier
65882, 2025-224A
Orbit
LEO
Country
Flag of USUS
Related business
Manufacturer
SpaceX/Seattle
Mission
Operational spacecraft
Bus & Motor
STARLINK V2MO, Unknown motor
Mass
575 kg wet, ~530 kg dry
Launch date (UTC)
2025-10-07 (1 month ago)
Launch vehicle
FALCON 9
Launch site
Air Force Eastern Test Range (AFETR)
Object type
Payload
Rocket body
Debris
Shape & HBR
Unknown shape, 17.7 m
Radar Cross Section
RCS unknown

Expand to show TLE details & history
Last TLE update: 2 days ago

TLE from 2 days ago
0 STARLINK-35270
1 65882U 25224A   25312.73971709  .00134990  00000-0  23853-2 0  9999
2 65882  53.1592 214.0525 0001208 106.9645 253.1497 15.49405883  6292
Epoch: 2025-11-08T17:45Z
TLE epoch observation values (Epoch: 2025-11-08T17:45:11.556Z)
Latitude
0.00001°
Longitude
-100.41064°
Altitude
419.608 km
Speed
7.66 km/s
True Right ascension
14h 16m 12s
True Declination
0° 00' 00"
Sunlit
Object was in daylight at epoch
Visualization orbit readout
Latitude
Unknown
Longitude
Unknown
Altitude
Unknown
Speed
Unknown
Apparent Right ascension
Unknown
Apparent Declination
Unknown
Sunlit
N/A
Visualization observer readout
Local Sidereal Time
03:11:41
Azimuth
Unknown
Elevation
Unknown
Doppler factor
Unknown
Orbital elements
Apogee altitude
419.543 km
Perigee altitude
417.901 km
Semi-major axis
6,796.859 km
Eccentricity
0.00012
Inclination
53.1592°
RAAN
214.0525°
Arg. of periapsis
106.9645°
True anomaly
253.13645°
Mean anomaly
253.1497°
Eccentric anomaly
253.14308°
Mean motion
3.8733 °/min
Orbital period
92.94 mins
BSTAR
0.0023853
Loading maneuver chart data...
Computing Atmospheric mass density...
Loading historical data...
Loading historical data...
Loading historical data...
Loading historical data...
Loading historical data...
Loading historical data...
Loading historical data...

Documentation

Showing up to 5 results
|